User: anonymous   Login
Location: Unspecified
(0.0000°N, 0.0000°E)
Time: 21:46:03
(UTC+00:00)
Language:

USA 283 - Orbit

View from above orbital plane
View from above orbital plane
View from above satellite
View from above satellite

Ground track
Ground track

The orbit data is extracted from the following two-line orbital elements,

1 43339U 18036A   21332.59205604 -.00000300  00000-0  00000+0 0  9995
2 43339   0.0027   5.3901 0000912 290.7301 118.8423  1.00269827  2087
Epoch (UTC): 28 November 2021 14:12:33
Eccentricity: 0.0000912
inclination: 0.0027°
perigee height: 35783 km
apogee height: 35790 km
right ascension of ascending node: 5.3901°
argument of perigee: 290.7301°
revolutions per day: 1.00269827
mean anomaly at epoch: 118.8423°
orbit number at epoch: 208

The dashed part of the orbit path shows where the satellite is in the earth's shadow,  

DLR